Location: Camden Lake
(44.4269°N, 76.8469°W)
Time: 04:03:27
(UTC-04:00)

Daily predictions for brighter satellites

Satellite Brightness Start Highest point End
(mag) Time Altitude Azimuth Time Altitude Azimuth Time Altitude Azimuth
ATLAS 3B R/B 4.5 01:11:13 26° NNE 01:11:13 26° NNE 01:14:02 10° NE
SL-16 R/B 4.1 02:31:15 31° NE 02:31:15 31° NE 02:35:31 10° N
CENTAUR R/B 4.2 02:42:57 27° ENE 02:42:57 27° ENE 02:46:30 10° NE
SL-16 R/B 4.4 02:50:00 18° ENE 02:50:00 18° ENE 02:52:18 10° NE
USA 215 4.3 02:42:35 10° E 02:48:35 40° NNE 02:54:35 10° NW
ATLAS 3B R/B 4.3 02:58:26 27° NNW 02:58:32 27° NNW 03:04:26 10° NNE
Cosmos 1697 Rocket 4.4 03:01:54 28° NNE 03:01:54 28° NNE 03:04:30 10° NNE
CZ-2D R/B 3.7 03:08:38 10° NNE 03:11:58 32° NE 03:11:58 32° NE
Cosmos 1980 Rocket 3.6 03:19:15 34° NNE 03:19:15 34° NNE 03:22:24 10° NNE
Resurs 1-4 Rocket 3.7 03:13:34 10° NNE 03:16:34 31° NE 03:16:34 31° NE
Cosmos 2263 Rocket 3.3 03:26:57 10° NNW 03:31:06 39° NNE 03:31:06 39° NNE
FALCON 9 R/B 4.3 03:31:24 55° S 03:32:28 56° S 04:06:49 10° ESE
Cosmos 2315 Rocket 3.9 04:10:00 84° NW 04:10:00 84° NW 04:16:07 10° N
ADEOS 4.5 04:06:45 10° N 04:10:17 40° NNW 04:10:17 40° NNW
Lacrosse 4 Rocket 3.4 04:08:23 10° N 04:11:58 27° NE 04:15:36 10° ESE
SL-16 R/B 3.7 04:16:19 28° NW 04:16:19 28° NW 04:19:26 10° NNW
Meteor 1-27 Rocket 4.5 04:15:16 43° NW 04:15:16 43° NW 04:19:45 10° N
DNEPR-1 R/B 4.2 04:14:37 74° NNE 04:14:37 74° NNE 04:19:16 10° NE
Tiangong 2 4.2 04:27:08 12° E 04:27:08 12° E 04:27:26 10° E
SL-08 ROCKET BODY 4.4 04:19:01 10° N 04:24:55 76° E 04:27:25 36° SSE
Cosmos 2322 Rocket 2.3 04:28:06 61° NW 04:28:06 61° NW 04:33:24 10° NNE
Cosmos 1709 Rocket 4.4 04:22:39 10° NNW 04:27:32 46° WNW 04:27:32 46° WNW
ADEOS Rocket 2.9 04:24:14 10° N 04:29:18 56° NW 04:29:18 56° NW
CENTAUR R/B 2.9 04:30:07 46° WNW 04:30:52 48° NW 04:37:40 10° NNE
USA 215 3.2 04:24:36 10° SE 04:31:11 90° S 04:37:47 10° NW
CZ-2D R/B 4.3 04:26:57 10° N 04:30:15 48° N 04:30:15 48° N
SL-16 R/B 2.3 04:31:51 60° NW 04:31:51 60° NW 04:37:23 10° NNE
COSMOS 2428 4.4 04:32:15 13° SSE 04:36:24 29° ESE 04:41:14 10° NE
Cosmos 2074 Rocket 3.9 04:35:23 10° N 04:41:41 88° E 04:47:29 12° S
ARIANE 5 R/B 3.7 04:40:46 10° N 04:44:11 28° NW 04:44:11 28° NW
ISS -0.9 04:51:36 10° SE 04:51:36 10° SE 04:51:37 10° SE
Cosmos 1844 Rocket 3.9 04:45:17 10° NNW 04:50:36 43° ENE 04:55:53 10° SE
SL-8 R/B 4.2 04:49:39 43° NW 04:50:42 52° N 04:55:23 10° ENE
COBE Rocket 4.4 04:46:18 10° N 04:50:55 45° WNW 04:50:55 45° WNW
Genesis I 4.1 04:52:42 39° NNW 04:52:42 39° NNW 04:55:46 10° NNE
CZ-2D R/B 3.3 04:49:06 10° N 04:53:19 28° NW 04:53:19 28° NW
Cosmos 1544 Rocket 3.4 04:52:15 10° NNW 04:56:43 74° W 04:57:05 68° SW
Resurs 1-4 Rocket 3.4 04:54:01 10° N 04:57:40 24° NW 04:57:40 24° NW
MTI 4.4 04:58:44 47° ESE 04:59:23 58° ENE 05:02:39 10° N
Cosmos 2360 Rocket 2.1 04:57:54 43° SSW 04:59:49 85° WNW 05:05:31 10° NNE
Cosmos 2278 Rocket 4.4 04:55:44 10° N 05:00:23 25° NE 05:05:01 10° ESE
Cosmos 1980 Rocket 3.9 05:01:00 17° NW 05:01:36 17° NW 05:05:12 10° N
CZ-4B R/B 2.7 04:58:19 10° NNE 05:01:56 74° ESE 05:02:23 63° SSE
Cosmos 1812 3.4 05:04:57 40° NW 05:04:57 40° NW 05:07:51 10° N
Okean O Rocket 1.5 05:03:28 10° NNE 05:07:57 90° W 05:09:49 35° SSW
PAYLOAD B 4.2 05:07:43 10° NNE 05:13:22 86° ESE 05:18:06 15° SSW
Cosmos 2184 Rocket 4.1 05:09:53 10° NNW 05:15:54 53° W 05:21:56 10° SSW
Cosmos 2263 Rocket 3.9 05:11:17 10° NW 05:12:41 16° NW 05:12:41 16° NW
Okean-O 4.3 05:13:46 10° NNE 05:17:47 33° E 05:21:47 10° SSE
Meteor 1-12 Rocket 4.2 05:12:46 10° NNW 05:18:19 60° W 05:23:54 10° S
Cosmos 1340 2.6 05:18:04 54° SW 05:18:40 64° WNW 05:22:26 10° N
Cosmos 1777 Rocket 4.3 05:16:28 10° NNW 05:21:28 43° WSW 05:26:25 10° S
ATLAS 5 CENTAUR R/B 3.6 05:17:03 10° NNW 05:22:36 42° NE 05:28:37 10° ESE
DELTA 2 R/B (1) 4.4 05:20:34 26° SSW 05:22:56 39° SSE 05:28:03 10° E
Cosmos 1666 3.8 05:20:27 10° N 05:24:12 46° ENE 05:27:56 10° SSE
Cosmos 2333 Rocket 3.9 05:19:32 10° SSE 05:24:33 33° ESE 05:29:36 10° NE
Meteor 1-18 Rocket 4.4 05:22:11 29° SW 05:24:42 50° WNW 05:30:10 10° N
ADEOS II 2.0 05:20:59 10° N 05:26:16 78° WNW 05:30:52 14° SSW
Cosmos 1743 2.7 05:22:32 10° N 05:26:26 83° E 05:30:17 10° S
Meteor 1-31 Rocket 4.1 05:23:35 10° NNE 05:27:11 39° E 05:30:45 10° SSE
Cosmos 1455 Rocket 3.5 05:26:31 10° NNW 05:30:36 38° W 05:32:07 29° SW
MOS 1 Rocket 4.0 05:27:36 10° N 05:31:57 34° WNW 05:33:13 29° W
Cosmos 2322 3.9 05:29:55 26° SW 05:33:02 56° WNW 05:38:42 10° NNE
EO 1 Del DPAF 3.6 05:34:09 17° SSW 05:36:47 41° W 05:40:28 10° NNW
SAR-Lupe-3 4.5 05:34:35 10° S 05:38:00 58° W 05:41:29 10° NNW
Meteor 1-13 Rocket 4.1 05:35:13 10° S 05:40:44 86° W 05:46:24 10° N
Okean 1 4.2 05:40:05 28° W 05:40:58 31° WNW 05:44:37 10° N
USA 116 4.0 05:41:23 10° SSE 05:45:32 87° WSW 05:50:19 10° NNW
Cosmos 1238 Rocket 2.1 05:46:13 20° SSW 05:48:03 57° W 05:50:59 10° N
Cosmos 2154 Rocket 4.0 05:43:32 10° NNW 05:49:34 55° W 05:55:33 10° SSW
Cosmos 1975 3.9 05:46:31 10° NW 05:49:49 24° W 05:50:38 22° WSW
Meteor 2-19 Rocket 4.4 05:44:23 10° N 05:50:31 86° W 05:56:35 10° S
Lacrosse 4 Rocket 2.0 05:46:56 10° NW 05:50:42 33° WSW 05:54:32 10° S
Cosmos 2333 4.2 05:46:25 10° SSW 05:52:04 81° WNW 05:57:49 10° NNE
Cosmos 1844 3.7 05:46:44 10° NNW 05:52:33 85° WSW 05:58:16 10° SSE
Cosmos 1536 Rocket 4.4 05:54:41 17° SW 05:57:24 31° WNW 06:01:25 10° N
Cosmos 2208 Rocket 4.2 05:53:05 10° SW 05:58:22 57° WNW 06:03:46 10° NNE
CZ-4B R/B 3.6 05:53:41 10° N 05:59:02 45° WNW 06:04:18 10° SW
Aureole 2 Rocket 4.3 05:55:56 10° S 05:59:16 33° ESE 06:02:23 10° NE
Meteor PRIRODA 3.7 05:56:46 10° N 06:00:29 56° WNW 06:04:10 10° SSW
Tiangong 2 1.8 05:59:14 22° WSW 06:00:46 37° SSW 06:03:41 10° SE
Iridium 2 4.1 05:57:23 10° N 06:01:13 69° E 06:05:01 10° S
Cosmos 1437 4.1 05:59:56 10° SSE 06:03:03 43° E 06:06:12 10° NNE
Cosmos 1867 3.8 05:59:03 10° NNW 06:04:33 77° NE 06:09:59 10° SE
SKYMED 2 4.0 06:04:26 10° SSE 06:08:43 66° ENE 06:13:03 10° N
Geosat 4.4 06:03:55 10° SE 06:08:54 67° ENE 06:13:54 10° NNW
Okean 1-7 Rocket 3.6 06:04:35 10° SSW 06:09:05 68° W 06:13:35 10° N
Cosmos 2181 Rocket 4.0 06:05:15 10° SSW 06:11:24 67° W 06:17:41 10° N
Cosmos 2322 Rocket 4.1 06:10:33 10° WNW 06:13:04 13° NW 06:15:35 10° NNW
SL-8 Rocket 3.9 06:07:20 10° N 06:13:35 78° W 06:19:44 10° S
Cosmos 1980 4.1 06:08:57 10° SSW 06:14:32 66° ESE 06:20:09 10° NNE
USA 215 4.1 06:09:22 10° S 06:14:43 26° SW 06:20:05 10° WNW
SL-16 R/B 4.2 06:14:38 10° WNW 06:17:06 13° NW 06:19:36 10° NNW
Meteor 1-23 Rocket 4.3 06:13:20 10° SSW 06:19:09 80° W 06:24:58 10° N
ERS-2 2.7 06:16:07 10° N 06:19:35 39° WNW 06:23:02 10° SW
COSMOS 2428 3.1 06:15:01 10° SW 06:20:26 45° WNW 06:25:54 10° NNE
Radarsat Rocket 4.3 06:15:16 10° NNE 06:21:18 70° ESE 06:27:05 10° S
CENTAUR R/B 4.4 06:18:41 10° WNW 06:23:28 20° NNW 06:28:38 10° NNE
Thor Agena Rocket 3.6 06:18:50 10° S 06:23:47 56° WSW 06:28:46 10° NNW
USA 229 DEB 3.8 06:18:37 10° SW 06:25:28 88° NW 06:32:29 10° NE
USA 229 3.8 06:18:43 10° SW 06:25:35 88° NW 06:32:35 10° NE
Meteor 2-9 Rocket 4.3 06:20:19 10° NNW 06:25:53 53° W 06:31:15 10° S
Cosmos 2341 Rocket 4.5 06:21:21 10° NNW 06:27:01 38° W 06:32:40 10° SSW
Cosmos 2219 Rocket 2.2 06:21:37 10° SW 06:27:09 65° WNW 06:32:45 10° NNE
Cosmos 1606 Rocket 3.6 06:23:11 10° NNW 06:27:39 71° W 06:32:05 10° S
Okean 2 3.4 06:24:56 10° SSW 06:29:04 71° W 06:33:16 10° N
Cosmos 2150 Rocket 4.0 06:24:08 10° NNW 06:29:21 66° WSW 06:34:39 10° S
SL-8 R/B 3.8 06:28:48 10° WNW 06:33:36 81° NNE 06:38:23 10° ESE
Cosmos 1844 Rocket 3.4 06:29:30 10° NW 06:34:19 30° WSW 06:39:05 10° SSW
Meteor 1-15 Rocket 4.4 06:30:16 10° NNW 06:36:06 62° W 06:41:55 10° S
Cosmos 2218 Rocket 4.1 06:30:18 10° NNW 06:36:37 63° W 06:42:51 10° S
